No particular awareness of the weather is required.    There are no Weather-warnings


Meteo18 Weather Cam more information Meteo18 Weather Cam


Thunder radar more information blitzortung!


Rain radar more information rain snow radar


Visit our other weather sites:

Template documentation
and downloads

And another site



Weather Underground History page Text

Daily Summary for January 2, 2017 Units:  English    Metric   Both
« Previous Day
Next Day »
Daily Weekly Monthly Yearly Custom
  High: Low: Average:
Temperature: TemperatureC °F -0.4 °F 0.6 °F
Dew Point: DewpointC °F -0.7 °F 0.2 °F
Humidity: Humidity % 95 % 97 %
Wind Speed: WindSpeedKMH mph 0.0 mph 2 mph
Wind Gust: WindSpeedGustKMH mph - -
Wind:- - ENE
Pressure: PressurehPa in 1022.9 in -
Precipitation: 0.5 in    
Historical Graphs
 
 
Tabular Data for January 2, 2017
Time Temperature Dew Point Pressure Wind Wind Speed Wind Gust Humidity Rainfall Rate (Hourly)
TemperatureC °F DewpointC °F PressurehPa in Calm     Humidity % HourlyPrecipMM in
00:02 -0.1 °F -0.4 °F 1023.2 in Calm     98 % 0.0 in
00:12 -0.1 °F -0.4 °F 1023.2 in Calm     98 % 0.0 in
00:17 -0.1 °F -0.4 °F 1023.2 in Calm     98 % 0.0 in
00:27 -0.1 °F -0.4 °F 1023.6 in Calm     98 % 0.0 in
00:32 -0.1 °F -0.4 °F 1023.2 in Calm     98 % 0.0 in
00:42 -0.1 °F -0.4 °F 1023.2 in Calm     98 % 0.0 in
00:47 -0.1 °F -0.4 °F 1023.2 in Calm     98 % 0.0 in
00:52 -0.1 °F -0.4 °F 1023.2 in Calm     98 % 0.0 in
00:57 -0.1 °F -0.4 °F 1023.2 in Calm   1.6 mph 98 % 0.0 in
01:02 -0.1 °F -0.4 °F 1023.2 in Calm   1.6 mph 98 % 0.0 in
01:07 -0.1 °F -0.4 °F 1023.2 in Calm   1.6 mph 98 % 0.0 in
01:12 -0.1 °F -0.4 °F 1023.2 in Calm     98 % 0.0 in
01:17 -0.1 °F -0.4 °F 1023.2 in Calm     98 % 0.0 in
01:22 -0.1 °F -0.4 °F 1023.2 in Calm     98 % 0.0 in
01:27 -0.2 °F -0.5 °F 1023.2 in Calm     98 % 0.0 in
01:32 -0.2 °F -0.5 °F 1023.2 in Calm     98 % 0.0 in
01:42 -0.2 °F -0.5 °F 1023.2 in Calm     98 % 0.0 in
01:47 -0.2 °F -0.5 °F 1023.2 in Calm     98 % 0.0 in
01:52 -0.1 °F -0.4 °F 1023.2 in Calm     98 % 0.0 in
02:02 -0.2 °F -0.5 °F 1023.2 in Calm     98 % 0.0 in
02:07 -0.2 °F -0.5 °F 1023.2 in Calm     98 % 0.0 in
02:12 -0.2 °F -0.5 °F 1023.2 in Calm     98 % 0.0 in
02:17 -0.2 °F -0.5 °F 1023.2 in Calm   1.6 mph 98 % 0.0 in
02:22 -0.2 °F -0.5 °F 1023.2 in Calm   1.6 mph 98 % 0.0 in
02:27 -0.2 °F -0.5 °F 1023.2 in Calm     98 % 0.0 in
02:32 -0.2 °F -0.5 °F 1023.2 in Calm     98 % 0.0 in
02:37 -0.2 °F -0.5 °F 1023.2 in Calm     98 % 0.0 in
02:42 -0.2 °F -0.5 °F 1023.2 in Calm     98 % 0.0 in
02:47 -0.2 °F -0.5 °F 1023.2 in Calm     98 % 0.0 in
02:52 -0.2 °F -0.5 °F 1023.2 in Calm     98 % 0.0 in
02:57 -0.2 °F -0.5 °F 1023.2 in Calm     98 % 0.0 in
03:02 -0.2 °F -0.5 °F 1023.2 in Calm     98 % 0.0 in
03:07 -0.2 °F -0.5 °F 1023.6 in Calm     98 % 0.0 in
03:12 -0.2 °F -0.5 °F 1023.6 in Calm     98 % 0.0 in
03:17 -0.2 °F -0.5 °F 1023.2 in Calm     98 % 0.0 in
03:22 -0.2 °F -0.5 °F 1023.2 in Calm     98 % 0.0 in
03:27 -0.2 °F -0.5 °F 1023.2 in Calm     98 % 0.0 in
03:32 -0.2 °F -0.5 °F 1023.2 in Calm     98 % 0.0 in
03:42 -0.3 °F -0.6 °F 1023.2 in Calm     98 % 0.0 in
03:47 -0.3 °F -0.6 °F 1023.2 in Calm     98 % 0.0 in
03:52 -0.3 °F -0.6 °F 1023.2 in Calm     98 % 0.0 in
03:57 -0.3 °F -0.6 °F 1023.2 in Calm     98 % 0.0 in
04:02 -0.3 °F -0.6 °F 1023.2 in Calm     98 % 0.0 in
04:07 -0.3 °F -0.6 °F 1023.2 in Calm     98 % 0.0 in
04:12 -0.3 °F -0.6 °F 1023.2 in Calm     98 % 0.0 in
04:17 -0.3 °F -0.6 °F 1023.2 in Calm     98 % 0.0 in
04:22 -0.3 °F -0.6 °F 1023.2 in Calm     98 % 0.0 in
04:27 -0.3 °F -0.6 °F 1023.2 in Calm     98 % 0.0 in
04:32 -0.3 °F -0.6 °F 1023.2 in Calm     98 % 0.0 in
04:37 -0.3 °F -0.6 °F 1023.2 in Calm     98 % 0.0 in
04:42 -0.3 °F -0.6 °F 1023.2 in Calm     98 % 0.0 in
04:47 -0.3 °F -0.6 °F 1023.2 in Calm     98 % 0.0 in
04:52 -0.3 °F -0.6 °F 1023.2 in Calm     98 % 0.0 in
04:57 -0.3 °F -0.6 °F 1023.2 in Calm     98 % 0.0 in
05:02 -0.3 °F -0.6 °F 1023.2 in Calm     98 % 0.0 in
05:07 -0.3 °F -0.6 °F 1022.9 in Calm     98 % 0.0 in
05:12 -0.3 °F -0.6 °F 1023.2 in Calm     98 % 0.0 in
05:17 -0.3 °F -0.6 °F 1022.9 in Calm     98 % 0.0 in
05:22 -0.3 °F -0.6 °F 1022.9 in Calm     98 % 0.0 in
05:27 -0.3 °F -0.6 °F 1023.2 in Calm     98 % 0.0 in
05:32 -0.3 °F -0.6 °F 1023.2 in Calm     98 % 0.0 in
05:37 -0.4 °F -0.7 °F 1023.2 in Calm     98 % 0.0 in
05:42 -0.4 °F -0.7 °F 1023.2 in Calm     98 % 0.0 in
05:47 -0.3 °F -0.6 °F 1023.2 in Calm     98 % 0.0 in
05:52 -0.3 °F -0.6 °F 1023.2 in Calm     98 % 0.0 in
05:57 -0.3 °F -0.6 °F 1023.2 in Calm     98 % 0.0 in
06:07 -0.3 °F -0.6 °F 1023.2 in Calm     98 % 0.0 in
06:12 -0.3 °F -0.6 °F 1023.2 in Calm     98 % 0.0 in
06:17 -0.3 °F -0.6 °F 1023.2 in Calm     98 % 0.0 in
06:22 -0.3 °F -0.6 °F 1023.2 in Calm     98 % 0.0 in
06:27 -0.3 °F -0.6 °F 1023.2 in Calm     98 % 0.0 in
06:32 -0.3 °F -0.6 °F 1023.2 in Calm     98 % 0.0 in
06:37 -0.3 °F -0.6 °F 1023.2 in Calm     98 % 0.0 in
06:42 -0.3 °F -0.6 °F 1023.6 in Calm     98 % 0.0 in
06:52 -0.3 °F -0.6 °F 1023.6 in Calm     98 % 0.0 in
06:57 -0.3 °F -0.6 °F 1023.9 in Calm     98 % 0.0 in
07:02 -0.3 °F -0.6 °F 1023.9 in Calm     98 % 0.0 in
07:07 -0.3 °F -0.6 °F 1023.9 in Calm     98 % 0.0 in
07:12 -0.3 °F -0.6 °F 1024.3 in Calm     98 % 0.0 in
07:17 -0.3 °F -0.6 °F 1024.3 in Calm     98 % 0.0 in
07:22 -0.3 °F -0.6 °F 1024.3 in Calm     98 % 0.0 in
07:27 -0.3 °F -0.6 °F 1024.3 in Calm     98 % 0.0 in
07:37 -0.3 °F -0.6 °F 1024.3 in Calm     98 % 0.0 in
07:42 -0.3 °F -0.6 °F 1024.3 in Calm     98 % 0.0 in
07:47 -0.3 °F -0.6 °F 1024.3 in Calm     98 % 0.0 in
07:52 -0.3 °F -0.6 °F 1024.3 in Calm     98 % 0.0 in
07:57 -0.3 °F -0.6 °F 1024.3 in Calm     98 % 0.0 in
08:02 -0.3 °F -0.6 °F 1024.3 in Calm     98 % 0.0 in
08:12 -0.3 °F -0.6 °F 1024.3 in Calm     98 % 0.0 in
08:17 -0.3 °F -0.6 °F 1024.3 in Calm     98 % 0.0 in
08:22 -0.3 °F -0.6 °F 1024.3 in Calm     98 % 0.0 in
08:27 -0.3 °F -0.6 °F 1024.3 in Calm     98 % 0.0 in
08:32 -0.3 °F -0.6 °F 1024.3 in Calm     98 % 0.0 in
08:37 -0.3 °F -0.6 °F 1024.3 in Calm     98 % 0.0 in
08:42 -0.3 °F -0.6 °F 1024.3 in Calm     98 % 0.0 in
08:47 -0.3 °F -0.6 °F 1024.3 in Calm     98 % 0.0 in
08:52 -0.3 °F -0.6 °F 1024.3 in Calm     98 % 0.0 in
08:57 -0.3 °F -0.6 °F 1024.3 in Calm     98 % 0.0 in
09:02 -0.3 °F -0.6 °F 1024.3 in Calm     98 % 0.0 in
09:07 -0.2 °F -0.5 °F 1024.3 in Calm     98 % 0.0 in
09:12 -0.3 °F -0.6 °F 1024.3 in Calm     98 % 0.0 in
09:17 -0.3 °F -0.6 °F 1024.3 in Calm     98 % 0.0 in
09:22 -0.2 °F -0.5 °F 1024.3 in Calm     98 % 0.0 in
09:27 -0.2 °F -0.5 °F 1024.3 in Calm     98 % 0.0 in
09:32 -0.2 °F -0.5 °F 1024.3 in Calm     98 % 0.0 in
09:37 -0.2 °F -0.5 °F 1024.3 in Calm     98 % 0.0 in
09:42 -0.2 °F -0.5 °F 1024.3 in Calm     98 % 0.0 in
09:47 -0.2 °F -0.5 °F 1024.6 in Calm     98 % 0.0 in
09:52 -0.2 °F -0.5 °F 1024.6 in Calm     98 % 0.0 in
09:57 -0.2 °F -0.5 °F 1024.6 in Calm     98 % 0.0 in
10:02 -0.2 °F -0.5 °F 1024.6 in Calm     98 % 0.0 in
10:07 -0.1 °F -0.4 °F 1024.9 in Calm     98 % 0.0 in
10:17 -0.1 °F -0.4 °F 1024.9 in Calm     98 % 0.0 in
10:27 -0.1 °F -0.4 °F 1024.9 in Calm     98 % 0.0 in
10:32 -0.1 °F -0.4 °F 1024.9 in Calm     98 % 0.0 in
10:37 -0.1 °F -0.4 °F 1024.9 in Calm     98 % 0.0 in
10:42 -0.1 °F -0.4 °F 1024.9 in Calm     98 % 0.0 in
10:52 -0.1 °F -0.4 °F 1024.9 in Calm     98 % 0.0 in
10:57 -0.1 °F -0.4 °F 1024.9 in Calm     98 % 0.0 in
11:02 -0.1 °F -0.4 °F 1024.9 in Calm     98 % 0.0 in
11:12 0.0 °F -0.3 °F 1025.3 in Calm     98 % 0.0 in
11:22 0.0 °F -0.3 °F 1025.3 in Calm     98 % 0.0 in
11:27 0.1 °F -0.2 °F 1025.3 in Calm     98 % 0.0 in
11:32 0.1 °F -0.2 °F 1025.6 in Calm     98 % 0.0 in
11:37 0.1 °F -0.2 °F 1025.6 in Calm     98 % 0.0 in
11:42 0.1 °F -0.2 °F 1025.6 in Calm     98 % 0.0 in
11:47 0.2 °F -0.1 °F 1025.6 in Calm     98 % 0.0 in
11:57 0.3 °F 0.0 °F 1025.6 in Calm     98 % 0.0 in
12:02 0.3 °F 0.0 °F 1025.3 in Calm     98 % 0.0 in
12:07 0.3 °F 0.0 °F 1025.3 in Calm     98 % 0.0 in
12:12 0.3 °F 0.0 °F 1025.3 in Calm     98 % 0.0 in
12:22 0.4 °F 0.1 °F 1025.3 in Calm     98 % 0.0 in
12:27 0.7 °F 0.4 °F 1025.3 in Calm     98 % 0.0 in
12:37 0.8 °F 0.5 °F 1025.3 in Calm     98 % 0.0 in
12:42 1.1 °F 0.8 °F 1025.3 in Calm     98 % 0.0 in
12:52 1.3 °F 1.0 °F 1024.9 in Calm   1.6 mph 98 % 0.0 in
12:57 1.2 °F 0.9 °F 1024.9 in Calm   1.6 mph 98 % 0.0 in
13:02 1.3 °F 1.0 °F 1024.9 in Calm   1.6 mph 98 % 0.0 in
13:12 1.3 °F 1.0 °F 1024.9 in Calm   1.6 mph 98 % 0.0 in
13:17 1.4 °F 1.1 °F 1024.9 in SW 1.6 mph 3.2 mph 98 % 0.0 in
13:22 1.5 °F 1.2 °F 1024.9 in Calm   3.2 mph 98 % 0.0 in
13:27 1.8 °F 1.5 °F 1024.9 in Calm   3.2 mph 98 % 0.0 in
13:32 1.6 °F 1.3 °F 1024.9 in Calm   3.2 mph 98 % 0.0 in
13:37 1.8 °F 1.5 °F 1024.6 in Calm   3.2 mph 98 % 0.0 in
13:47 2.1 °F 1.8 °F 1024.6 in Calm   1.6 mph 98 % 0.0 in
13:52 2.2 °F 1.9 °F 1024.6 in Calm   1.6 mph 98 % 0.0 in
14:02 2.1 °F 1.8 °F 1024.6 in Calm   1.6 mph 98 % 0.0 in
14:07 2.3 °F 2.0 °F 1024.6 in Calm   1.6 mph 98 % 0.0 in
14:12 2.6 °F 2.3 °F 1024.3 in Calm   1.6 mph 98 % 0.0 in
14:17 2.7 °F 2.4 °F 1024.3 in Calm   1.6 mph 98 % 0.0 in
14:22 2.7 °F 2.4 °F 1024.3 in Calm   1.6 mph 98 % 0.0 in
14:27 2.7 °F 2.4 °F 1024.3 in Calm   1.6 mph 98 % 0.0 in
14:37 2.9 °F 2.6 °F 1024.6 in SW 1.6 mph 3.2 mph 98 % 0.0 in
14:47 2.8 °F 2.4 °F 1024.6 in Calm   4.8 mph 97 % 0.3 in
14:52 2.8 °F 2.4 °F 1024.6 in SW 1.6 mph 4.8 mph 97 % 0.3 in
15:02 2.7 °F 2.3 °F 1024.9 in Calm   3.2 mph 97 % 0.3 in
15:12 2.7 °F 2.3 °F 1024.9 in Calm   1.6 mph 97 % 0.3 in
15:17 2.7 °F 2.3 °F 1024.9 in Calm     97 % 0.3 in
15:22 2.6 °F 2.2 °F 1024.9 in Calm   1.6 mph 97 % 0.3 in
15:32 2.6 °F 2.0 °F 1024.9 in Calm   1.6 mph 96 % 0.3 in
15:37 2.6 °F 2.0 °F 1025.3 in Calm   1.6 mph 96 % 0.3 in
15:42 2.6 °F 2.0 °F 1025.3 in Calm   1.6 mph 96 % 0.0 in
15:47 2.6 °F 2.0 °F 1025.3 in Calm   1.6 mph 96 % 0.0 in
15:57 2.6 °F 1.9 °F 1025.3 in Calm   1.6 mph 95 % 0.0 in
16:02 2.6 °F 1.9 °F 1025.3 in Calm   1.6 mph 95 % 0.0 in
16:07 2.6 °F 1.9 °F 1025.3 in Calm   1.6 mph 95 % 0.0 in
16:12 2.6 °F 1.9 °F 1025.3 in Calm   1.6 mph 95 % 0.0 in
16:22 2.5 °F 1.8 °F 1025.6 in Calm   1.6 mph 95 % 0.0 in
16:32 2.5 °F 1.8 °F 1025.6 in East 1.6 mph 1.6 mph 95 % 0.0 in
16:37 2.5 °F 1.8 °F 1025.6 in ENE 1.6 mph 1.6 mph 95 % 0.0 in
16:42 2.4 °F 1.7 °F 1025.6 in Calm   1.6 mph 95 % 0.0 in
16:47 2.4 °F 1.7 °F 1026.0 in Calm   1.6 mph 95 % 0.0 in
16:52 2.4 °F 1.7 °F 1025.6 in Calm   1.6 mph 95 % 0.0 in
17:02 2.3 °F 1.6 °F 1026.0 in Calm   1.6 mph 95 % 0.0 in
17:07 2.3 °F 1.6 °F 1026.0 in Calm   1.6 mph 95 % 0.0 in
17:12 2.3 °F 1.7 °F 1026.0 in Calm   1.6 mph 96 % 0.0 in
17:17 2.3 °F 1.7 °F 1026.0 in Calm   1.6 mph 96 % 0.0 in
17:22 2.3 °F 1.7 °F 1026.0 in NNE 3.2 mph   96 % 0.0 in
17:32 2.3 °F 1.7 °F 1026.0 in Calm   4.8 mph 96 % 0.0 in
17:42 2.2 °F 1.6 °F 1026.0 in NNE 3.2 mph 4.8 mph 96 % 0.3 in
17:52 2.2 °F 1.6 °F 1026.0 in NE 4.8 mph 4.8 mph 96 % 0.3 in
17:57 2.2 °F 1.6 °F 1026.0 in NE 1.6 mph 6.4 mph 96 % 0.3 in
18:02 2.1 °F 1.5 °F 1026.3 in NE 1.6 mph 6.4 mph 96 % 0.3 in
18:07 2.1 °F 1.5 °F 1026.0 in NNE 4.8 mph 4.8 mph 96 % 0.3 in
18:12 2.1 °F 1.5 °F 1026.3 in NNE 3.2 mph 6.4 mph 96 % 0.3 in
18:22 2.0 °F 1.6 °F 1026.3 in NE 9.7 mph 9.7 mph 97 % 0.3 in
18:27 2.0 °F 1.6 °F 1026.3 in NE 9.7 mph 9.7 mph 97 % 0.3 in
18:37 2.1 °F 1.7 °F 1026.3 in NNE 6.4 mph 12.9 mph 97 % 0.0 in
18:42 2.0 °F 1.6 °F 1026.3 in NNE 4.8 mph 12.9 mph 97 % 0.0 in
18:52 2.0 °F 1.6 °F 1026.3 in ENE 4.8 mph 9.7 mph 97 % 0.0 in
18:57 2.0 °F 1.6 °F 1026.6 in North 3.2 mph 9.7 mph 97 % 0.0 in
19:02 1.9 °F 1.5 °F 1026.3 in North 6.4 mph 9.7 mph 97 % 0.0 in
19:12 1.8 °F 1.4 °F 1026.3 in East 1.6 mph 8.0 mph 97 % 0.0 in
19:17 1.8 °F 1.4 °F 1026.3 in NNE 3.2 mph 8.0 mph 97 % 0.0 in
19:27 1.7 °F 1.3 °F 1026.6 in NNE 6.4 mph 8.0 mph 97 % 0.0 in
19:32 1.7 °F 1.3 °F 1026.6 in NNE 6.4 mph 9.7 mph 97 % 0.0 in
19:37 1.7 °F 1.3 °F 1026.6 in NE 6.4 mph 9.7 mph 97 % 0.0 in
19:42 1.6 °F 1.2 °F 1026.6 in NE 4.8 mph 11.3 mph 97 % 0.0 in
19:52 1.7 °F 1.3 °F 1026.6 in NE 4.8 mph 12.9 mph 97 % 0.0 in
19:57 1.6 °F 1.2 °F 1026.6 in NE 8.0 mph 11.3 mph 97 % 0.0 in
20:02 1.6 °F 1.2 °F 1026.6 in NNE 9.7 mph 11.3 mph 97 % 0.0 in
20:07 1.6 °F 1.0 °F 1026.6 in North 8.0 mph 14.5 mph 96 % 0.0 in
20:12 1.5 °F 0.9 °F 1026.6 in North 6.4 mph 14.5 mph 96 % 0.0 in
20:17 1.4 °F 0.8 °F 1026.6 in NE 6.4 mph 14.5 mph 96 % 0.0 in
20:27 1.4 °F 0.8 °F 1026.6 in NNE 8.0 mph 9.7 mph 96 % 0.0 in
20:32 1.3 °F 0.7 °F 1027.0 in NE 4.8 mph 12.9 mph 96 % 0.0 in
20:37 1.3 °F 0.7 °F 1027.0 in NE 6.4 mph 14.5 mph 96 % 0.0 in
20:42 1.3 °F 0.7 °F 1027.0 in NNE 3.2 mph 14.5 mph 96 % 0.0 in
20:52 1.3 °F 0.7 °F 1027.0 in NNE 3.2 mph 12.9 mph 96 % 0.0 in
20:57 1.3 °F 0.7 °F 1027.3 in NNW 4.8 mph 12.9 mph 96 % 0.0 in
21:02 1.2 °F 0.6 °F 1027.3 in NE 1.6 mph 12.9 mph 96 % 0.0 in
21:12 1.2 °F 0.6 °F 1027.3 in NE 1.6 mph 14.5 mph 96 % 0.0 in
21:17 1.1 °F 0.5 °F 1027.7 in NNW 3.2 mph 14.5 mph 96 % 0.0 in
21:27 1.1 °F 0.5 °F 1027.7 in North 4.8 mph 9.7 mph 96 % 0.0 in
21:32 1.0 °F 0.4 °F 1027.7 in NNE 12.9 mph 16.1 mph 96 % 0.0 in
21:37 0.9 °F 0.3 °F 1027.7 in NNW 8.0 mph 19.3 mph 96 % 0.0 in
21:42 0.8 °F 0.2 °F 1027.7 in North 12.9 mph 19.3 mph 96 % 0.0 in
21:47 0.8 °F 0.2 °F 1027.7 in NNE 11.3 mph 19.3 mph 96 % 0.0 in
21:52 0.7 °F 0.1 °F 1027.7 in North 12.9 mph 19.3 mph 96 % 0.0 in
21:57 0.7 °F 0.1 °F 1027.7 in North 8.0 mph 22.5 mph 96 % 0.0 in
22:07 0.7 °F 0.1 °F 1028.0 in North 3.2 mph 22.5 mph 96 % 0.0 in
22:12 0.8 °F 0.1 °F 1028.0 in NNE 12.9 mph 20.9 mph 95 % 0.0 in
22:22 0.8 °F 0.1 °F 1028.0 in NNE 4.8 mph 20.9 mph 95 % 0.0 in
22:27 0.8 °F 0.1 °F 1028.0 in NE 16.1 mph 19.3 mph 95 % 0.0 in
22:32 0.7 °F 0.0 °F 1028.0 in ENE 6.4 mph 17.7 mph 95 % 0.0 in
22:37 0.7 °F 0.0 °F 1028.3 in NNE 9.7 mph 17.7 mph 95 % 0.0 in
22:42 0.7 °F 0.1 °F 1028.3 in NNE 1.6 mph 17.7 mph 96 % 0.0 in
22:47 0.6 °F -0.1 °F 1028.3 in NE 8.0 mph 14.5 mph 95 % 0.0 in
22:57 0.6 °F -0.1 °F 1028.3 in NE 12.9 mph 19.3 mph 95 % 0.0 in
23:02 0.6 °F -0.1 °F 1028.3 in NE 14.5 mph 19.3 mph 95 % 0.0 in
23:12 0.6 °F 0.0 °F 1028.3 in NE 16.1 mph 20.9 mph 96 % 0.0 in
23:22 0.6 °F 0.0 °F 1028.7 in NE 19.3 mph 20.9 mph 96 % 0.0 in
23:27 0.6 °F -0.1 °F 1028.7 in NNE 14.5 mph 22.5 mph 95 % 0.0 in
23:32 0.6 °F -0.1 °F 1028.7 in NE 12.9 mph 27.4 mph 95 % 0.0 in
23:42 0.6 °F -0.1 °F 1028.7 in NNE 17.7 mph 29.0 mph 95 % 0.3 in
23:47 0.6 °F -0.1 °F 1028.7 in NE 14.5 mph 29.0 mph 95 % 0.3 in
23:52 0.6 °F -0.1 °F 1028.7 in ENE 16.1 mph 29.0 mph 95 % 0.3 in
23:57 0.6 °F -0.1 °F 1028.7 in NNE 20.9 mph 27.4 mph 95 % 0.3 in
Meteo18
Compliments of Weather Underground - 4 mb

Script developed by  Jim McMurry - jmcmurry@mwt.net Adapted for the template by  Wim van der Kuil - Leuven-Template.eu

You find our weather info also at:

European Weather Network

Weather Underground

Equipment we use:

Weather-station
Davis Vue

Weather-program
Meteobridge

Weather-server
Raspberry PI 2 B+

Provider
1 and 1

Davis Vue

Meteobridge

Raspberry PI 2 B+

1 and 1